Total_Precipitation_Accumulation
0.01 0.02 0.03 0.04 0.05 0.10 0.14 0.17 0.21 0.16 0.16 0.26 0.35 0.40 0.40 0.34 0.28 0.24 0.20 0.19 0.19 0.22 0.24 0.25 0.25 0.26 0.26 0.28 0.33 0.36 0.41 0.52 0.56 0.51 0.44 0.36 0.28 0.21 0.19 0.16 0.13 0.13 0.18 0.21
0.02 0.06 0.07 0.06 0.05 0.07 0.09 0.10 0.14 0.16 0.18 0.19 0.20 0.26 0.30 0.27 0.25 0.23 0.22 0.19 0.17 0.17 0.17 0.20 0.20 0.19 0.20 0.22 0.23 0.26 0.30 0.35 0.42 0.42 0.38 0.32 0.25 0.17 0.13 0.11 0.10 0.11 0.13 0.14
0.03 0.05 0.09 0.09 0.07 0.07 0.06 0.05 0.11 0.22 0.25 0.19 0.20 0.24 0.25 0.20 0.17 0.17 0.15 0.11 0.10 0.11 0.11 0.10 0.09 0.10 0.15 0.18 0.19 0.25 0.28 0.29 0.34 0.39 0.37 0.27 0.17 0.13 0.11 0.09 0.09 0.11 0.10 0.07
0.06 0.07 0.10 0.07 0.01 0.02 0.05 0.04 0.04 0.12 0.13 0.12 0.13 0.12 0.09 0.07 0.07 0.06 0.05 0.03 0.03 0.03 0.04 0.04 0.04 0.08 0.13 0.17 0.24 0.28 0.31 0.33 0.35 0.35 0.34 0.28 0.20 0.16 0.16 0.13 0.12 0.13 0.10 0.05
0.04 0.05 0.04 0.02 0.01 0.03 0.05 0.05 0.01 0.03 0.05 0.04 0.02 0.04 0.06 0.02 0.01 0.01 0.01 0.01 0.01 0.02 0.03 0.03 0.06 0.11 0.18 0.26 0.33 0.35 0.34 0.33 0.32 0.35 0.39 0.37 0.29 0.20 0.15 0.14 0.12 0.13 0.11 0.06
0.01 0.03 0.05 0.02 0.01 0.02 0.03 0.07 0.01 0.01 0.02 0.02 0.02 0.09 0.13 0.04 0.00 0.00 0.00 0.01 0.01 0.03 0.05 0.08 0.11 0.15 0.22 0.31 0.37 0.39 0.36 0.31 0.30 0.30 0.33 0.37 0.35 0.25 0.17 0.15 0.11 0.09 0.08 0.07
0.01 0.03 0.02 0.01 0.01 0.02 0.08 0.12 0.01 0.00 0.00 0.01 0.03 0.06 0.06 0.02 0.00 0.00 0.01 0.01 0.02 0.06 0.08 0.10 0.11 0.15 0.23 0.31 0.36 0.34 0.30 0.30 0.32 0.32 0.33 0.35 0.36 0.30 0.23 0.19 0.15 0.11 0.09 0.08
0.02 0.04 0.04 0.01 0.00 0.01 0.03 0.02 0.01 0.00 0.00 0.01 0.01 0.01 0.00 0.00 0.01 0.01 0.01 0.02 0.04 0.09 0.13 0.12 0.11 0.16 0.21 0.26 0.29 0.30 0.30 0.32 0.33 0.35 0.29 0.30 0.39 0.40 0.39 0.32 0.19 0.16 0.13 0.12
0.02 0.02 0.01 0.00 0.00 0.00 0.00 0.01 0.01 0.01 0.01 0.01 0.01 0.01 0.01 0.01 0.01 0.01 0.01 0.03 0.06 0.10 0.13 0.17 0.21 0.24 0.26 0.26 0.27 0.31 0.36 0.39 0.36 0.33 0.32 0.34 0.34 0.33 0.30 0.23 0.16 0.12 0.11 0.11
0.02 0.01 0.00 0.00 0.00 0.00 0.00 0.00 0.00 0.00 0.01 0.01 0.01 0.01 0.01 0.01 0.01 0.02 0.03 0.06 0.09 0.15 0.22 0.29 0.36 0.37 0.33 0.31 0.33 0.37 0.44 0.49 0.46 0.41 0.37 0.32 0.31 0.27 0.23 0.17 0.12 0.12 0.10 0.10
0.03 0.02 0.01 0.01 0.00 0.00 0.00 0.00 0.00 0.00 0.01 0.01 0.02 0.02 0.02 0.02 0.03 0.04 0.05 0.07 0.11 0.19 0.26 0.30 0.37 0.46 0.45 0.46 0.49 0.52 0.49 0.46 0.44 0.44 0.46 0.42 0.35 0.32 0.30 0.25 0.17 0.17 0.17 0.14
0.03 0.03 0.03 0.03 0.01 0.00 0.00 0.00 0.01 0.01 0.01 0.02 0.03 0.02 0.02 0.02 0.03 0.04 0.06 0.09 0.13 0.19 0.26 0.32 0.40 0.46 0.48 0.51 0.56 0.61 0.58 0.51 0.47 0.44 0.42 0.39 0.35 0.24 0.18 0.18 0.14 0.13 0.14 0.13
0.03 0.02 0.02 0.02 0.01 0.01 0.01 0.01 0.01 0.02 0.03 0.03 0.03 0.03 0.03 0.03 0.04 0.04 0.06 0.08 0.12 0.18 0.23 0.29 0.35 0.41 0.46 0.50 0.52 0.52 0.50 0.48 0.43 0.36 0.33 0.31 0.28 0.21 0.12 0.06 0.03 0.02 0.03 0.03
0.02 0.01 0.01 0.01 0.01 0.01 0.02 0.02 0.03 0.03 0.04 0.04 0.05 0.05 0.05 0.05 0.06 0.07 0.08 0.09 0.11 0.15 0.19 0.25 0.33 0.37 0.41 0.46 0.49 0.48 0.45 0.40 0.34 0.27 0.22 0.19 0.14 0.11 0.08 0.04 0.01 0.00 0.00 0.00
0.01 0.02 0.02 0.02 0.02 0.03 0.04 0.04 0.05 0.06 0.06 0.06 0.06 0.07 0.08 0.10 0.10 0.10 0.11 0.12 0.14 0.17 0.19 0.24 0.32 0.38 0.42 0.46 0.47 0.45 0.43 0.38 0.29 0.24 0.18 0.15 0.10 0.08 0.05 0.05 0.04 0.03 0.01 0.00
0.03 0.03 0.04 0.04 0.04 0.05 0.06 0.06 0.07 0.08 0.08 0.07 0.07 0.08 0.10 0.11 0.12 0.12 0.13 0.15 0.19 0.20 0.20 0.23 0.29 0.36 0.45 0.48 0.47 0.43 0.39 0.35 0.30 0.22 0.16 0.13 0.10 0.07 0.05 0.04 0.04 0.04 0.03 0.01
0.06 0.07 0.08 0.07 0.06 0.06 0.07 0.08 0.09 0.10 0.10 0.09 0.08 0.08 0.09 0.11 0.14 0.16 0.16 0.17 0.19 0.19 0.20 0.25 0.29 0.34 0.46 0.55 0.51 0.45 0.38 0.31 0.26 0.19 0.13 0.10 0.09 0.06 0.05 0.04 0.02 0.02 0.02 0.01
0.08 0.09 0.10 0.11 0.11 0.11 0.11 0.12 0.13 0.13 0.13 0.12 0.11 0.11 0.12 0.14 0.17 0.19 0.20 0.20 0.20 0.19 0.18 0.23 0.30 0.37 0.44 0.58 0.59 0.49 0.41 0.33 0.24 0.17 0.11 0.09 0.08 0.07 0.05 0.04 0.03 0.01 0.01 0.00
0.11 0.13 0.15 0.17 0.18 0.19 0.19 0.20 0.19 0.18 0.17 0.17 0.17 0.17 0.17 0.18 0.19 0.19 0.20 0.22 0.23 0.23 0.22 0.25 0.32 0.39 0.42 0.52 0.64 0.57 0.43 0.34 0.22 0.14 0.10 0.09 0.08 0.07 0.06 0.04 0.03 0.02 0.01 0.00
0.18 0.21 0.24 0.27 0.29 0.31 0.31 0.31 0.30 0.28 0.27 0.27 0.26 0.24 0.23 0.22 0.23 0.24 0.25 0.25 0.24 0.26 0.30 0.33 0.30 0.31 0.40 0.51 0.61 0.56 0.45 0.35 0.24 0.11 0.07 0.07 0.06 0.06 0.05 0.04 0.03 0.03 0.02 0.01
0.27 0.31 0.34 0.36 0.36 0.36 0.35 0.35 0.34 0.33 0.31 0.31 0.32 0.31 0.28 0.25 0.25 0.28 0.30 0.28 0.25 0.29 0.32 0.32 0.28 0.26 0.31 0.47 0.58 0.52 0.43 0.37 0.27 0.13 0.06 0.04 0.04 0.04 0.04 0.04 0.03 0.02 0.02 0.01
0.26 0.28 0.30 0.30 0.30 0.28 0.26 0.27 0.29 0.29 0.28 0.28 0.29 0.29 0.29 0.28 0.29 0.30 0.28 0.27 0.28 0.29 0.29 0.28 0.27 0.28 0.30 0.38 0.45 0.46 0.40 0.37 0.29 0.16 0.07 0.04 0.03 0.03 0.03 0.03 0.03 0.02 0.02 0.02
0.13 0.13 0.13 0.13 0.13 0.13 0.11 0.13 0.16 0.20 0.22 0.25 0.27 0.29 0.31 0.32 0.31 0.31 0.26 0.23 0.26 0.26 0.24 0.25 0.27 0.27 0.26 0.27 0.31 0.34 0.34 0.33 0.28 0.16 0.09 0.04 0.02 0.02 0.03 0.03 0.03 0.02 0.02 0.01
0.02 0.02 0.03 0.04 0.06 0.08 0.10 0.10 0.12 0.15 0.17 0.20 0.20 0.22 0.29 0.33 0.29 0.24 0.21 0.19 0.19 0.18 0.18 0.19 0.20 0.18 0.17 0.16 0.22 0.26 0.27 0.28 0.25 0.19 0.12 0.06 0.04 0.04 0.03 0.03 0.02 0.01 0.01 0.01
0.01 0.02 0.03 0.06 0.11 0.15 0.17 0.18 0.18 0.17 0.21 0.23 0.20 0.20 0.25 0.29 0.28 0.22 0.18 0.16 0.15 0.12 0.13 0.15 0.15 0.14 0.12 0.10 0.15 0.20 0.23 0.22 0.21 0.19 0.14 0.06 0.04 0.03 0.02 0.02 0.02 0.01 0.01 0.01
0.04 0.06 0.08 0.12 0.18 0.24 0.27 0.32 0.34 0.33 0.38 0.41 0.34 0.29 0.29 0.28 0.26 0.23 0.18 0.14 0.12 0.10 0.10 0.12 0.12 0.12 0.10 0.08 0.11 0.15 0.18 0.17 0.14 0.13 0.10 0.06 0.04 0.04 0.03 0.02 0.02 0.02 0.01 0.01
0.08 0.12 0.17 0.21 0.24 0.30 0.38 0.45 0.51 0.55 0.60 0.64 0.60 0.49 0.41 0.36 0.31 0.24 0.20 0.15 0.11 0.09 0.07 0.09 0.10 0.09 0.09 0.08 0.09 0.12 0.13 0.11 0.09 0.08 0.07 0.06 0.05 0.04 0.03 0.03 0.02 0.02 0.02 0.02